Cartersville, GA

1:58 PM EST on November 12, 2019 (GMT -0500)
Cartersville

Weather History for KVPC - September, 2019

Change the Weather History Date:

Monday, September 30, 2019

  Actual Average Record
Temperature  
Mean Temperature 82 °F 66 °F  
Max Temperature 97 °F 78 °F 88 °F (2008)
Min Temperature 68 °F 54 °F 41 °F (2003)
Degree Days  
Heating Degree Days 0 2  
Month to date heating degree days 16  
Since 1 July heating degree days 18  
Cooling Degree Days 17 3  
Month to date cooling degree days 207  
Year to date cooling degree days 1472  
Growing Degree Days 32 (Base 50)    
Moisture  
Dew Point 66 °F    
Average Humidity 65    
Maximum Humidity 93    
Minimum Humidity 33    
Precipitation  
Precipitation 0.00 in 0.12 in 2.45 in (1980)
Month to date precipitation 3.62  
Year to date precipitation 38.21  
Sea Level Pressure  
Sea Level Pressure 30.12 in    
Wind  
Wind Speed 1 mph ()    
Max Wind Speed 5 mph    
Max Gust Speed -    
Visibility 9.2 miles    
Events      
T = Trace of Precipitation, MM = Missing Value Source: Averaged Metar Reports

Daily Weather History Graph

Daily Weather History Graph

Search for Another Location

Airport or City:

Astronomy

Sep. 30, 2019 Rise Set
Actual Time 7:33 AM EDT 7:25 PM EDT
Civil Twilight 7:08 AM EDT 7:50 PM EDT
Nautical Twilight 6:39 AM EDT 8:19 PM EDT
Astronomical Twilight 6:09 AM EDT 8:48 PM EDT
Moon 9:32 AM EDT (9/30) 9:05 PM EDT (9/30)
Length of Visible Light 12h 42m
Length of Day
11h 52m
Waxing Crescent, 5% of the Moon is Illuminated
Sep 30
Waxing Crescent
Oct 5
First Quarter
Oct 13
Full
Oct 21
Last Quarter
Oct 27
New

Hourly Weather History & Observations

Time (EDT) Temp. Heat Index Dew Point Humidity Pressure Visibility Wind Dir Wind Speed Gust Speed Precip Events Conditions
12:53 AM 71.1 °F - 68.0 °F 90% 30.14 in 10.0 mi Calm Calm - N/A   Clear
1:53 AM 70.0 °F - 66.9 °F 90% 30.14 in 10.0 mi Calm Calm - N/A   Clear
2:53 AM 69.1 °F - 66.0 °F 90% 30.14 in 9.0 mi Calm Calm - N/A   Clear
3:53 AM 70.0 °F - 66.9 °F 90% 30.12 in 9.0 mi Calm Calm - N/A   Clear
4:53 AM 70.0 °F - 66.9 °F 90% 30.13 in 8.0 mi Calm Calm - N/A   Clear
5:53 AM 70.0 °F - 66.9 °F 90% 30.14 in 7.0 mi Calm Calm - N/A   Clear
6:53 AM 69.1 °F - 66.0 °F 90% 30.15 in 6.0 mi Calm Calm - N/A   Clear
7:53 AM 68.0 °F - 66.0 °F 93% 30.17 in 5.0 mi Calm Calm - N/A   Clear
8:53 AM 73.9 °F - 69.1 °F 85% 30.18 in 8.0 mi Calm Calm - N/A   Clear
9:53 AM 81.0 °F 84.4 °F 70.0 °F 69% 30.18 in 10.0 mi Calm Calm - N/A   Clear
10:53 AM 87.1 °F 90.6 °F 68.0 °F 53% 30.17 in 10.0 mi Variable 3.5 mph - N/A   Clear
11:53 AM 90.0 °F 93.6 °F 68.0 °F 48% 30.17 in 10.0 mi Calm Calm - N/A   Clear
12:53 PM 93.9 °F 97.0 °F 66.0 °F 40% 30.16 in 10.0 mi Variable 3.5 mph - N/A   Partly Cloudy
1:53 PM 93.9 °F 95.6 °F 64.0 °F 37% 30.13 in 10.0 mi Variable 3.5 mph - N/A   Partly Cloudy
2:53 PM 96.1 °F 97.3 °F 63.0 °F 33% 30.10 in 10.0 mi Calm Calm - N/A   Partly Cloudy
3:53 PM 96.1 °F 97.3 °F 63.0 °F 33% 30.08 in 10.0 mi Variable 4.6 mph - N/A   Mostly Cloudy
4:53 PM 96.1 °F 97.3 °F 63.0 °F 33% 30.06 in 10.0 mi South 4.6 mph - N/A   Partly Cloudy
5:53 PM 95.0 °F 95.6 °F 62.1 °F 33% 30.06 in 10.0 mi Variable 4.6 mph - N/A   Clear
6:53 PM 91.9 °F 92.5 °F 62.1 °F 37% 30.05 in 10.0 mi Calm Calm - N/A   Clear
7:53 PM 82.9 °F 84.4 °F 64.0 °F 53% 30.06 in 10.0 mi Calm Calm - N/A   Clear
8:53 PM 78.1 °F - 66.0 °F 66% 30.06 in 10.0 mi Calm Calm - N/A   Clear
9:53 PM 77.0 °F - 66.0 °F 69% 30.07 in 10.0 mi Calm Calm - N/A   Clear
10:53 PM 73.9 °F - 66.0 °F 76% 30.08 in 10.0 mi Calm Calm - N/A   Clear
11:53 PM 73.0 °F - 64.9 °F 76% 30.08 in 10.0 mi Calm Calm - N/A   Clear